QPF
0.00 0.00 0.00 0.00 0.00 0.00 0.00 0.00 0.00 0.00 0.00 0.00 0.00 0.00 0.00 0.00 0.00 0.00 0.00 0.00 0.00 0.00 0.00 0.00 0.00 0.00 0.00 0.00 0.00 0.00 0.00 0.00 0.00 0.00 0.00 0.00 0.00 0.00 0.00 0.00 0.00 0.00 0.00 0.00 0.00 0.00 0.00
0.00 0.00 0.00 0.00 0.00 0.00 0.00 0.00 0.00 0.00 0.00 0.00 0.00 0.00 0.00 0.00 0.00 0.00 0.00 0.00 0.00 0.00 0.00 0.00 0.00 0.00 0.00 0.00 0.00 0.00 0.00 0.00 0.00 0.00 0.00 0.00 0.00 0.00 0.00 0.00 0.00 0.00 0.00 0.00 0.00 0.00 0.00
0.00 0.00 0.00 0.00 0.00 0.00 0.00 0.00 0.00 0.00 0.00 0.00 0.00 0.00 0.00 0.00 0.00 0.00 0.00 0.00 0.00 0.00 0.00 0.00 0.00 0.00 0.00 0.00 0.00 0.00 0.00 0.00 0.00 0.00 0.00 0.00 0.00 0.00 0.00 0.00 0.00 0.00 0.00 0.00 0.00 0.00 0.00
0.00 0.00 0.00 0.00 0.00 0.00 0.00 0.00 0.00 0.00 0.00 0.00 0.00 0.00 0.00 0.00 0.00 0.00 0.00 0.00 0.00 0.00 0.00 0.00 0.00 0.00 0.00 0.00 0.00 0.00 0.00 0.00 0.00 0.00 0.00 0.00 0.00 0.00 0.00 0.00 0.00 0.00 0.00 0.00 0.00 0.00 0.00
0.00 0.00 0.00 0.00 0.00 0.00 0.00 0.00 0.00 0.00 0.00 0.00 0.00 0.00 0.00 0.00 0.00 0.00 0.00 0.00 0.00 0.00 0.00 0.00 0.00 0.00 0.00 0.00 0.00 0.00 0.00 0.00 0.00 0.00 0.00 0.00 0.00 0.00 0.00 0.00 0.00 0.00 0.00 0.00 0.00 0.00 0.00
0.00 0.00 0.00 0.00 0.00 0.00 0.00 0.00 0.00 0.00 0.00 0.00 0.00 0.00 0.00 0.00 0.00 0.00 0.00 0.00 0.00 0.00 0.00 0.00 0.00 0.00 0.00 0.00 0.00 0.00 0.00 0.00 0.00 0.00 0.00 0.00 0.00 0.00 0.00 0.00 0.00 0.00 0.00 0.00 0.00 0.00 0.00
0.00 0.00 0.00 0.00 0.00 0.00 0.00 0.00 0.00 0.00 0.00 0.00 0.00 0.00 0.00 0.00 0.00 0.00 0.00 0.00 0.00 0.00 0.00 0.00 0.00 0.00 0.00 0.00 0.00 0.00 0.00 0.00 0.00 0.00 0.00 0.00 0.00 0.00 0.00 0.00 0.00 0.00 0.00 0.00 0.00 0.00 0.00
0.00 0.00 0.00 0.00 0.00 0.00 0.00 0.00 0.00 0.00 0.00 0.00 0.00 0.00 0.00 0.00 0.00 0.00 0.00 0.00 0.00 0.00 0.00 0.00 0.00 0.00 0.00 0.00 0.00 0.00 0.00 0.00 0.00 0.00 0.00 0.00 0.00 0.00 0.00 0.00 0.00 0.00 0.00 0.00 0.00 0.00 0.00
0.00 0.00 0.00 0.00 0.00 0.00 0.00 0.00 0.00 0.00 0.00 0.00 0.00 0.00 0.00 0.00 0.00 0.00 0.00 0.00 0.00 0.00 0.00 0.00 0.00 0.00 0.00 0.00 0.00 0.00 0.00 0.00 0.00 0.00 0.00 0.00 0.00 0.00 0.00 0.00 0.00 0.00 0.00 0.00 0.00 0.00 0.00
0.00 0.00 0.00 0.00 0.00 0.00 0.00 0.00 0.00 0.00 0.00 0.00 0.00 0.00 0.00 0.00 0.00 0.00 0.00 0.00 0.00 0.00 0.00 0.00 0.00 0.00 0.00 0.00 0.00 0.00 0.00 0.00 0.00 0.00 0.00 0.00 0.00 0.00 0.00 0.00 0.00 0.00 0.00 0.00 0.00 0.00 0.00
0.00 0.00 0.00 0.00 0.00 0.00 0.00 0.00 0.00 0.00 0.00 0.00 0.00 0.00 0.00 0.00 0.00 0.00 0.00 0.00 0.00 0.00 0.00 0.00 0.00 0.00 0.00 0.00 0.00 0.00 0.00 0.00 0.00 0.00 0.00 0.00 0.00 0.00 0.00 0.00 0.00 0.00 0.00 0.00 0.00 0.00 0.00
0.00 0.00 0.00 0.00 0.00 0.00 0.00 0.00 0.00 0.00 0.00 0.00 0.00 0.00 0.00 0.00 0.00 0.00 0.00 0.00 0.00 0.00 0.00 0.00 0.00 0.00 0.00 0.00 0.00 0.00 0.00 0.00 0.00 0.00 0.00 0.00 0.00 0.00 0.00 0.00 0.00 0.00 0.00 0.00 0.00 0.00 0.00
0.00 0.00 0.00 0.00 0.00 0.00 0.00 0.00 0.00 0.00 0.00 0.00 0.00 0.00 0.00 0.00 0.00 0.00 0.00 0.00 0.00 0.00 0.00 0.00 0.00 0.00 0.00 0.00 0.00 0.00 0.00 0.00 0.00 0.00 0.00 0.00 0.00 0.00 0.00 0.00 0.00 0.00 0.00 0.00 0.00 0.00 0.00
0.00 0.00 0.00 0.00 0.00 0.00 0.00 0.00 0.00 0.00 0.00 0.00 0.00 0.00 0.00 0.00 0.00 0.00 0.00 0.00 0.00 0.00 0.00 0.00 0.00 0.00 0.00 0.00 0.00 0.00 0.00 0.00 0.00 0.00 0.00 0.00 0.00 0.00 0.00 0.00 0.00 0.00 0.00 0.00 0.00 0.00 0.00
0.00 0.00 0.00 0.00 0.00 0.00 0.00 0.00 0.00 0.00 0.00 0.00 0.00 0.00 0.00 0.00 0.00 0.00 0.00 0.00 0.00 0.00 0.00 0.00 0.00 0.00 0.00 0.00 0.00 0.00 0.00 0.00 0.00 0.00 0.00 0.00 0.00 0.00 0.00 0.00 0.00 0.00 0.00 0.00 0.00 0.00 0.00
0.00 0.00 0.00 0.00 0.00 0.00 0.00 0.00 0.00 0.00 0.00 0.00 0.00 0.00 0.00 0.00 0.00 0.00 0.00 0.00 0.00 0.00 0.00 0.00 0.00 0.00 0.00 0.00 0.00 0.00 0.00 0.00 0.00 0.00 0.00 0.00 0.00 0.00 0.00 0.00 0.00 0.00 0.00 0.00 0.00 0.00 0.00
0.00 0.00 0.00 0.00 0.00 0.00 0.00 0.00 0.00 0.00 0.00 0.00 0.00 0.00 0.00 0.00 0.00 0.00 0.00 0.00 0.00 0.00 0.00 0.00 0.00 0.00 0.00 0.00 0.00 0.00 0.00 0.00 0.00 0.00 0.00 0.00 0.00 0.00 0.00 0.00 0.00 0.00 0.00 0.00 0.00 0.00 0.00
0.00 0.00 0.00 0.00 0.00 0.00 0.00 0.00 0.00 0.00 0.00 0.00 0.00 0.00 0.00 0.00 0.00 0.00 0.00 0.00 0.00 0.00 0.00 0.00 0.00 0.00 0.00 0.00 0.00 0.00 0.00 0.00 0.00 0.00 0.00 0.00 0.00 0.00 0.00 0.00 0.00 0.00 0.00 0.00 0.00 0.00 0.00
0.00 0.00 0.00 0.00 0.00 0.00 0.00 0.00 0.00 0.00 0.00 0.00 0.00 0.00 0.00 0.00 0.00 0.00 0.00 0.00 0.00 0.00 0.00 0.00 0.00 0.00 0.00 0.00 0.00 0.00 0.00 0.00 0.00 0.00 0.00 0.00 0.00 0.00 0.00 0.00 0.00 0.00 0.00 0.00 0.00 0.00 0.00
0.00 0.00 0.00 0.00 0.00 0.00 0.00 0.00 0.00 0.00 0.00 0.00 0.00 0.00 0.00 0.00 0.00 0.00 0.00 0.00 0.00 0.00 0.00 0.00 0.00 0.00 0.00 0.00 0.00 0.00 0.00 0.00 0.00 0.00 0.00 0.00 0.00 0.00 0.00 0.00 0.00 0.00 0.00 0.00 0.00 0.00 0.00
0.00 0.00 0.00 0.00 0.00 0.00 0.00 0.00 0.00 0.00 0.00 0.00 0.00 0.00 0.00 0.00 0.00 0.00 0.00 0.00 0.00 0.00 0.00 0.00 0.00 0.00 0.00 0.00 0.00 0.00 0.00 0.00 0.00 0.00 0.00 0.00 0.00 0.00 0.00 0.00 0.00 0.00 0.00 0.00 0.00 0.00 0.00
0.00 0.00 0.00 0.00 0.00 0.00 0.00 0.00 0.00 0.00 0.00 0.00 0.00 0.00 0.00 0.00 0.00 0.00 0.00 0.00 0.00 0.00 0.00 0.00 0.00 0.00 0.00 0.00 0.00 0.00 0.00 0.00 0.00 0.00 0.00 0.00 0.00 0.00 0.00 0.00 0.00 0.00 0.00 0.00 0.00 0.00 0.00
0.00 0.00 0.00 0.00 0.00 0.00 0.00 0.00 0.00 0.00 0.00 0.00 0.00 0.00 0.00 0.00 0.00 0.00 0.00 0.00 0.00 0.00 0.00 0.00 0.00 0.00 0.00 0.00 0.00 0.00 0.00 0.00 0.00 0.00 0.00 0.00 0.00 0.00 0.00 0.00 0.00 0.00 0.00 0.00 0.00 0.00 0.00
0.00 0.00 0.00 0.00 0.00 0.00 0.00 0.00 0.00 0.00 0.00 0.00 0.00 0.00 0.00 0.00 0.00 0.00 0.00 0.00 0.00 0.00 0.00 0.00 0.00 0.00 0.00 0.00 0.00 0.00 0.00 0.00 0.00 0.00 0.00 0.00 0.00 0.00 0.00 0.00 0.00 0.00 0.00 0.00 0.00 0.00 0.00
0.00 0.00 0.00 0.00 0.00 0.00 0.00 0.00 0.00 0.00 0.00 0.00 0.00 0.00 0.00 0.00 0.00 0.00 0.00 0.00 0.00 0.00 0.00 0.00 0.00 0.00 0.00 0.00 0.00 0.00 0.00 0.00 0.00 0.00 0.00 0.00 0.00 0.00 0.00 0.00 0.00 0.00 0.00 0.00 0.00 0.00 0.00
0.00 0.00 0.00 0.00 0.00 0.00 0.00 0.00 0.00 0.00 0.00 0.00 0.00 0.00 0.00 0.00 0.00 0.00 0.00 0.00 0.00 0.00 0.00 0.00 0.00 0.00 0.00 0.00 0.00 0.00 0.00 0.00 0.00 0.00 0.00 0.00 0.00 0.00 0.00 0.00 0.00 0.00 0.00 0.00 0.00 0.00 0.00
0.00 0.00 0.00 0.00 0.00 0.00 0.00 0.00 0.00 0.00 0.00 0.00 0.00 0.00 0.00 0.00 0.00 0.00 0.00 0.00 0.00 0.00 0.00 0.00 0.00 0.00 0.00 0.00 0.00 0.00 0.00 0.00 0.00 0.00 0.00 0.00 0.00 0.00 0.00 0.00 0.00 0.00 0.00 0.00 0.00 0.02 0.00
0.00 0.00 0.00 0.00 0.00 0.00 0.00 0.00 0.00 0.00 0.00 0.00 0.00 0.00 0.00 0.00 0.00 0.00 0.00 0.00 0.00 0.00 0.00 0.00 0.00 0.00 0.00 0.00 0.00 0.00 0.00 0.00 0.00 0.00 0.00 0.00 0.00 0.00 0.00 0.00 0.00 0.00 0.00 0.00 0.00 0.00 0.00
0.00 0.00 0.01 0.00 0.00 0.00 0.00 0.00 0.00 0.00 0.00 0.00 0.00 0.00 0.01 0.01 0.00 0.00 0.00 0.00 0.00 0.00 0.00 0.00 0.00 0.00 0.00 0.00 0.00 0.00 0.00 0.00 0.00 0.00 0.00 0.00 0.00 0.00 0.00 0.01 0.00 0.00 0.00 0.00 0.00 0.00 0.00
MSLP
1021.81 1021.37 1020.94 1020.51 1020.09 1019.59 1018.99 1018.35 1017.70 1017.15 1016.47 1015.81 1015.17 1014.52 1013.92 1013.22 1012.59 1011.99 1011.53 1011.08 1010.66 1010.38 1010.30 1010.34 1010.45 1010.63 1010.51 1007.34 1004.56 1005.13 1005.77 1006.17 1006.19 1005.81 1004.15 1003.45 1002.78 1002.15 1001.01 1000.19 1000.25 1000.15 999.88 999.90 999.72 999.62 999.54
1022.01 1021.54 1021.08 1020.70 1020.26 1019.72 1019.13 1018.48 1017.82 1017.20 1016.52 1015.82 1015.18 1014.52 1013.87 1013.16 1012.47 1011.82 1011.18 1010.62 1010.24 1009.97 1009.92 1010.05 1010.23 1010.47 1008.86 1004.65 1004.21 1004.67 1005.07 1005.60 1004.99 1004.46 1003.72 1003.20 1002.42 1001.88 1001.30 1000.60 1000.40 1000.00 1000.15 999.95 999.70 999.63 999.78
1022.17 1021.72 1021.28 1020.83 1020.41 1019.87 1019.26 1018.68 1017.98 1017.27 1016.59 1015.90 1015.14 1014.41 1013.76 1013.16 1012.42 1011.65 1010.96 1010.41 1009.96 1009.62 1009.73 1009.90 1010.08 1009.54 1006.10 1004.29 1003.75 1004.23 1004.56 1004.44 1004.10 1003.64 1003.03 1003.07 1002.58 1002.14 1001.12 1000.52 1000.30 1000.34 999.84 999.09 999.31 999.28 999.14
1022.30 1021.85 1021.42 1020.98 1020.59 1020.02 1019.46 1018.85 1018.20 1017.47 1016.73 1016.01 1015.23 1014.41 1013.61 1012.97 1012.29 1011.54 1010.86 1010.34 1009.90 1009.65 1009.69 1009.78 1009.94 1008.56 1004.77 1004.02 1003.65 1004.20 1003.78 1003.67 1003.80 1003.49 1003.14 1002.76 1002.79 1002.07 1001.36 1000.75 1000.34 999.60 998.81 998.09 998.87 999.19 999.32
1022.57 1022.06 1021.60 1021.15 1020.66 1020.17 1019.60 1018.92 1018.26 1017.62 1016.91 1016.12 1015.33 1014.36 1013.45 1012.63 1012.02 1011.43 1010.75 1010.27 1009.85 1009.69 1009.60 1009.71 1009.11 1006.78 1003.90 1004.85 1003.86 1003.54 1003.49 1003.03 1003.34 1003.23 1003.19 1003.29 1002.80 1001.72 1000.93 1000.34 998.92 998.65 997.21 997.83 998.45 999.48 999.25
1022.89 1022.44 1021.96 1021.42 1020.84 1020.33 1019.75 1019.09 1018.35 1017.59 1016.93 1016.19 1015.34 1014.37 1013.31 1012.42 1011.61 1011.09 1010.49 1010.22 1009.90 1009.69 1009.32 1008.30 1006.87 1005.14 1003.57 1002.87 1002.95 1002.88 1003.20 1002.92 1002.76 1002.75 1002.93 1002.83 1001.99 1000.88 1000.20 999.11 997.90 997.63 997.78 997.98 998.54 998.90 999.19
1023.17 1022.71 1022.25 1021.73 1021.12 1020.54 1019.99 1019.32 1018.55 1017.77 1016.95 1016.20 1015.30 1014.31 1013.27 1012.26 1011.25 1010.63 1010.08 1009.01 1009.05 1008.01 1006.34 1004.33 1003.14 1002.88 1002.26 1002.48 1003.06 1002.82 1002.93 1002.89 1002.54 1002.35 1001.45 1001.60 1000.65 999.32 998.84 999.44 999.57 999.32 999.08 998.66 998.81 999.48 999.56
1023.45 1022.97 1022.48 1021.93 1021.35 1020.82 1020.13 1019.45 1018.72 1017.91 1017.03 1016.21 1015.41 1014.32 1013.06 1012.03 1011.14 1009.89 1009.87 1006.95 1007.45 1007.16 1004.60 1003.37 1003.13 1002.80 1002.66 1002.31 1001.90 1002.07 1002.54 1002.28 1001.97 1001.06 1000.98 1000.91 999.68 999.61 1000.33 1000.24 1000.03 999.62 999.22 998.55 999.04 999.68 999.79
1023.52 1023.10 1022.62 1022.08 1021.54 1021.01 1020.39 1019.69 1018.85 1017.96 1017.11 1016.17 1015.26 1014.22 1013.05 1011.94 1010.87 1009.71 1007.83 1007.63 1007.27 1006.71 1004.68 1002.47 1001.94 1001.52 1001.88 1002.12 1001.04 1001.43 1002.03 1001.50 1001.03 1000.53 1000.39 999.63 999.70 1000.62 1000.43 1000.06 999.91 999.27 999.17 999.11 999.43 999.34 999.11
1023.79 1023.39 1022.89 1022.34 1021.79 1021.16 1020.49 1019.78 1018.94 1018.04 1017.15 1016.01 1015.13 1014.26 1013.26 1011.79 1010.95 1007.96 1006.93 1007.08 1006.60 1006.62 1003.46 1001.64 1001.31 1000.98 1001.49 1001.20 1000.74 1000.67 1001.26 1000.97 1000.64 1000.02 1000.20 999.79 1000.37 1000.62 1000.27 1000.09 1000.14 999.04 1000.02 1000.19 999.83 999.41 998.15
1023.99 1023.54 1023.04 1022.49 1021.91 1021.24 1020.54 1019.81 1018.94 1017.98 1017.13 1016.12 1015.07 1014.27 1013.24 1013.35 1010.55 1006.93 1007.30 1006.73 1006.52 1006.04 1001.77 1000.52 1000.43 1000.85 1000.60 1000.53 1000.01 1000.98 1001.10 1001.01 1000.21 1000.19 1000.64 999.71 1000.37 1000.56 1000.48 1000.22 1000.90 1000.08 1000.56 1000.32 999.98 999.36 998.66
1024.19 1023.68 1023.17 1022.63 1022.03 1021.39 1020.66 1019.89 1019.03 1017.98 1016.94 1015.98 1014.89 1013.99 1013.33 1010.96 1009.66 1007.30 1006.97 1006.60 1006.23 1004.17 1000.32 1000.08 1000.04 1000.19 1000.16 1000.23 1000.03 1000.54 1001.08 1001.28 1000.58 1000.49 1000.50 1000.19 1000.94 1001.01 1000.55 1001.16 1001.38 1001.23 1000.57 999.84 999.18 998.65 997.66
1024.29 1023.83 1023.34 1022.79 1022.19 1021.56 1020.76 1019.91 1019.04 1018.07 1016.83 1015.61 1014.44 1013.31 1013.31 1010.59 1007.36 1007.16 1006.89 1005.73 1003.85 1001.20 1000.02 999.41 999.48 999.43 999.37 999.35 999.64 1000.09 1000.37 1000.61 1000.16 1000.18 999.72 1000.17 1000.57 1001.03 1001.67 1001.09 1001.02 1000.98 1000.02 998.77 997.77 997.25 996.51
1024.34 1023.91 1023.40 1022.84 1022.24 1021.59 1020.83 1019.98 1019.08 1018.07 1016.78 1015.33 1013.87 1012.43 1010.51 1009.19 1008.10 1007.38 1006.45 1004.67 1002.28 999.97 999.37 999.76 999.48 999.16 998.82 998.84 999.29 999.76 999.70 999.66 999.94 1000.06 999.48 999.28 999.80 1000.71 1001.53 1001.40 1001.24 1001.18 1001.36 1000.23 998.98 998.17 997.56
1024.43 1023.98 1023.49 1022.95 1022.32 1021.63 1020.91 1020.10 1019.17 1018.06 1016.78 1015.38 1013.27 1009.35 1008.24 1007.38 1007.59 1007.47 1005.87 1003.11 1000.92 999.80 1000.02 1000.03 999.63 999.13 998.80 999.18 999.72 999.68 999.70 999.31 999.30 1000.17 1000.16 999.37 999.83 1001.13 1001.62 1002.06 1002.32 1001.45 1001.36 1000.88 1000.72 999.74 999.14
1024.37 1024.00 1023.56 1023.06 1022.47 1021.83 1021.15 1020.30 1019.23 1017.99 1016.64 1015.46 1013.40 1009.21 1006.69 1007.01 1007.09 1006.64 1004.97 1002.45 1001.14 1001.38 1001.48 1000.96 999.72 999.13 998.53 998.84 999.54 999.39 999.28 999.66 1000.17 1001.06 1001.11 1000.53 1000.73 1000.71 1001.61 1002.47 1002.28 1002.27 1002.05 1001.42 1000.50 999.97 999.32
1024.38 1023.98 1023.54 1023.04 1022.46 1021.84 1021.17 1020.38 1019.43 1018.24 1016.58 1014.47 1012.78 1007.87 1006.47 1006.59 1006.71 1005.52 1003.31 1001.49 1001.36 1002.04 1002.20 1001.27 1000.23 999.53 999.64 998.86 999.46 998.97 999.20 1000.24 1001.06 1001.22 1001.52 1001.07 1001.41 1000.90 1001.80 1001.66 1001.38 1001.81 1001.65 1001.82 1001.25 1001.39 1000.44
1024.39 1024.05 1023.64 1023.15 1022.64 1022.09 1021.44 1020.64 1019.79 1018.86 1017.04 1013.96 1011.12 1007.15 1006.43 1006.48 1005.59 1003.59 1002.46 1002.00 1003.08 1002.30 1002.42 1001.87 1001.50 1000.43 1000.03 1000.02 1000.10 999.97 999.93 1000.53 1001.80 1001.97 1001.89 1001.83 1001.76 1001.05 1000.82 1001.36 1002.07 1002.24 1002.23 1001.81 1001.68 1001.55 1001.03
1024.21 1023.89 1023.52 1023.12 1022.64 1022.11 1021.51 1020.84 1020.14 1019.51 1019.09 1017.69 1011.85 1007.88 1006.08 1006.11 1004.23 1002.70 1002.47 1003.09 1003.15 1002.59 1002.26 1001.82 1001.54 1001.27 1001.06 1000.90 1001.07 1000.79 1000.96 1002.15 1002.82 1002.88 1003.02 1002.80 1002.67 1001.83 1001.18 1001.10 1001.46 1002.44 1002.28 1002.45 1002.62 1002.66 1002.22
1023.93 1023.70 1023.45 1023.04 1022.64 1022.17 1021.58 1020.90 1020.19 1019.57 1019.25 1018.08 1012.49 1007.55 1005.67 1005.62 1004.66 1004.15 1002.80 1003.02 1002.93 1003.53 1002.97 1002.90 1002.12 1001.94 1001.79 1001.71 1001.60 1001.53 1001.81 1002.67 1003.65 1003.54 1004.57 1004.60 1003.82 1003.26 1002.24 1001.34 1001.99 1002.00 1002.26 1002.31 1002.46 1002.31 1001.70
1023.72 1023.47 1023.20 1022.90 1022.52 1022.14 1021.63 1021.03 1020.23 1019.37 1018.62 1017.90 1011.92 1008.41 1008.09 1005.18 1004.77 1004.62 1004.28 1003.69 1003.04 1002.86 1003.66 1003.32 1002.72 1002.54 1002.13 1002.06 1001.77 1001.95 1002.07 1002.38 1003.90 1004.71 1005.11 1004.81 1004.28 1004.05 1003.46 1003.12 1002.72 1002.40 1002.30 1002.29 1002.18 1002.07 1001.92
1023.58 1023.30 1022.90 1022.70 1022.41 1022.01 1021.68 1021.18 1020.44 1019.47 1018.05 1016.12 1012.55 1010.67 1009.07 1007.71 1007.03 1006.30 1005.24 1004.51 1003.97 1003.26 1003.55 1003.28 1003.34 1002.57 1002.67 1002.58 1002.27 1002.00 1002.13 1002.47 1002.96 1003.81 1004.80 1004.57 1004.62 1004.88 1004.27 1003.75 1003.25 1002.60 1002.28 1002.05 1002.03 1002.04 1001.95
1023.28 1023.15 1022.88 1022.58 1022.31 1022.01 1021.64 1021.28 1020.71 1020.04 1018.60 1015.44 1013.88 1012.55 1011.54 1008.56 1007.25 1006.50 1005.14 1004.73 1004.73 1004.41 1004.49 1004.30 1003.98 1003.79 1003.87 1003.63 1003.19 1003.10 1003.13 1003.05 1003.45 1004.02 1004.39 1004.84 1005.01 1005.12 1004.04 1003.59 1002.90 1002.24 1001.79 1001.59 1001.59 1001.85 1001.94
1022.98 1022.86 1022.71 1022.40 1022.16 1021.96 1021.77 1021.53 1021.19 1020.69 1020.38 1017.90 1016.05 1015.10 1012.20 1009.12 1007.50 1006.70 1006.07 1006.49 1005.99 1005.85 1005.60 1005.06 1005.36 1005.20 1005.27 1005.51 1005.01 1004.70 1004.29 1003.82 1004.07 1004.28 1004.92 1005.20 1005.53 1005.66 1004.64 1004.10 1002.59 1001.36 1001.88 1001.98 1002.08 1002.27 1002.62
1022.65 1022.55 1022.44 1022.24 1022.00 1021.84 1021.71 1021.57 1021.33 1021.02 1020.60 1018.85 1017.44 1016.07 1013.19 1010.65 1008.73 1007.89 1007.81 1007.68 1007.25 1006.96 1007.30 1006.84 1006.08 1005.96 1006.46 1006.08 1005.39 1004.92 1004.44 1004.17 1003.88 1003.94 1004.31 1004.74 1005.30 1004.93 1004.41 1003.18 1002.16 1001.55 1001.33 1002.31 1002.52 1002.75 1003.04
1022.27 1022.24 1022.12 1022.02 1021.87 1021.69 1021.56 1021.50 1021.38 1021.14 1020.87 1019.60 1017.10 1016.89 1015.45 1012.69 1009.92 1009.52 1009.19 1008.78 1007.94 1007.17 1006.94 1006.64 1006.64 1006.87 1007.32 1006.35 1005.18 1004.52 1003.66 1003.30 1002.91 1003.05 1003.71 1004.88 1005.36 1005.59 1004.36 1003.29 1002.17 1001.89 1002.84 1003.23 1003.89 1003.71 1004.05
1021.76 1021.75 1021.69 1021.70 1021.66 1021.54 1021.36 1021.25 1021.21 1021.05 1020.93 1020.20 1017.67 1017.45 1016.28 1013.87 1011.58 1011.30 1010.38 1009.73 1008.93 1008.42 1007.65 1006.80 1006.67 1006.63 1007.24 1006.41 1005.25 1004.13 1003.12 1003.12 1002.67 1002.52 1003.47 1004.54 1005.09 1004.85 1004.25 1003.69 1003.04 1002.60 1003.18 1003.93 1004.28 1004.73 1005.00
1021.30 1021.29 1021.33 1021.35 1021.37 1021.36 1021.26 1021.08 1021.05 1020.96 1020.82 1020.34 1017.67 1017.47 1016.81 1014.85 1012.94 1012.58 1012.12 1011.59 1010.63 1010.05 1008.80 1008.20 1007.65 1007.51 1007.13 1006.29 1005.44 1004.36 1003.36 1002.62 1002.23 1002.23 1002.43 1003.03 1003.64 1003.63 1003.60 1003.29 1002.87 1003.12 1003.86 1004.24 1005.02 1005.29 1005.25
1020.78 1020.89 1020.93 1020.99 1021.05 1021.08 1021.07 1020.99 1020.91 1020.86 1020.89 1020.73 1018.31 1017.32 1017.72 1017.09 1014.12 1013.73 1013.30 1012.81 1012.25 1011.66 1010.97 1009.82 1008.70 1008.11 1006.78 1006.12 1005.61 1004.94 1003.73 1002.92 1002.31 1001.67 1002.39 1003.08 1003.38 1003.26 1003.42 1003.80 1004.42 1004.39 1004.62 1004.91 1005.04 1005.27 1005.33
Thickness
5710 5715 5720 5726 5731 5737 5743 5750 5758 5765 5772 5780 5786 5792 5798 5805 5810 5816 5820 5824 5827 5830 5832 5832 5831 5829 5832 5846 5857 5872 5867 5863 5862 5861 5862 5858 5851 5851 5844 5860 5861 5850 5858 5864 5869 5868 5866
5708 5713 5718 5723 5728 5735 5741 5748 5756 5763 5770 5778 5785 5791 5798 5804 5811 5817 5822 5827 5831 5833 5834 5834 5832 5831 5842 5847 5880 5876 5872 5865 5866 5865 5862 5864 5859 5866 5855 5856 5852 5863 5858 5860 5867 5864 5863
5705 5710 5715 5720 5726 5732 5739 5746 5753 5761 5768 5776 5784 5791 5797 5803 5810 5817 5823 5828 5832 5835 5835 5834 5833 5838 5854 5853 5883 5879 5875 5870 5875 5871 5860 5868 5871 5858 5864 5853 5870 5860 5846 5863 5862 5865 5862
5702 5706 5712 5717 5722 5729 5736 5743 5750 5758 5766 5774 5782 5789 5797 5803 5809 5816 5823 5827 5831 5833 5834 5833 5832 5842 5850 5879 5883 5873 5878 5872 5877 5877 5872 5876 5873 5862 5857 5868 5858 5850 5859 5843 5859 5862 5863
5698 5703 5708 5714 5720 5726 5733 5740 5748 5755 5762 5771 5779 5788 5797 5804 5810 5816 5822 5826 5829 5831 5832 5832 5837 5846 5846 5871 5862 5875 5877 5864 5868 5871 5871 5869 5863 5853 5858 5842 5846 5853 5851 5846 5845 5860 5857
5693 5698 5704 5710 5716 5723 5730 5737 5745 5753 5760 5768 5776 5786 5796 5804 5812 5816 5822 5825 5826 5829 5832 5840 5849 5841 5858 5853 5868 5874 5877 5873 5859 5858 5849 5847 5847 5840 5846 5846 5830 5842 5842 5846 5834 5852 5853
5688 5694 5699 5705 5712 5719 5725 5732 5740 5749 5757 5765 5774 5784 5794 5803 5812 5818 5825 5834 5830 5830 5842 5849 5856 5851 5859 5870 5872 5862 5869 5859 5857 5846 5830 5842 5831 5832 5850 5847 5843 5840 5833 5830 5840 5849 5839
5683 5689 5694 5701 5707 5713 5721 5728 5736 5745 5754 5762 5770 5780 5793 5802 5810 5821 5822 5837 5828 5831 5831 5856 5854 5853 5861 5867 5846 5856 5868 5840 5836 5826 5839 5830 5826 5847 5844 5842 5835 5834 5828 5834 5839 5841 5834
5678 5683 5689 5696 5702 5708 5715 5723 5732 5741 5749 5758 5768 5778 5789 5799 5809 5821 5832 5826 5838 5838 5822 5844 5857 5854 5852 5857 5846 5845 5854 5847 5834 5828 5831 5830 5836 5841 5836 5834 5827 5834 5827 5826 5821 5835 5844
5671 5676 5682 5689 5696 5703 5710 5718 5727 5736 5745 5756 5765 5773 5783 5797 5805 5829 5826 5834 5839 5836 5816 5828 5838 5850 5853 5856 5838 5867 5864 5849 5836 5829 5831 5834 5840 5829 5829 5823 5830 5828 5831 5824 5821 5817 5813
5664 5670 5676 5682 5689 5697 5705 5713 5722 5732 5741 5751 5760 5768 5779 5779 5803 5821 5822 5834 5835 5826 5793 5839 5841 5869 5859 5841 5849 5840 5864 5846 5826 5827 5827 5823 5822 5818 5813 5820 5824 5817 5829 5821 5820 5815 5819
5657 5663 5670 5676 5683 5690 5699 5707 5716 5726 5736 5747 5756 5766 5773 5797 5803 5821 5826 5830 5823 5795 5789 5822 5840 5832 5830 5836 5839 5843 5837 5847 5847 5826 5828 5825 5836 5825 5823 5822 5820 5824 5819 5825 5828 5823 5802
5650 5656 5662 5669 5676 5683 5691 5700 5710 5719 5731 5744 5756 5767 5768 5787 5805 5819 5822 5816 5793 5792 5835 5819 5821 5834 5830 5826 5827 5827 5820 5814 5809 5793 5801 5813 5812 5823 5819 5807 5819 5816 5811 5796 5803 5810 5814
5643 5648 5655 5662 5669 5676 5684 5694 5703 5713 5725 5740 5755 5769 5785 5793 5803 5811 5809 5796 5771 5819 5819 5832 5828 5831 5819 5830 5825 5822 5819 5810 5826 5818 5812 5803 5787 5804 5815 5806 5797 5799 5793 5778 5760 5786 5808
5635 5641 5647 5654 5661 5669 5677 5686 5696 5707 5719 5733 5753 5788 5792 5802 5802 5803 5791 5779 5794 5815 5821 5812 5820 5809 5813 5820 5815 5814 5811 5815 5828 5821 5795 5804 5798 5808 5808 5807 5801 5790 5779 5807 5779 5797 5783
5627 5633 5639 5645 5653 5660 5668 5677 5688 5701 5714 5725 5743 5774 5790 5799 5800 5793 5780 5775 5798 5810 5807 5807 5795 5813 5803 5809 5801 5806 5808 5819 5809 5813 5818 5804 5777 5805 5796 5801 5801 5790 5799 5773 5789 5753 5754
5618 5623 5629 5636 5644 5651 5659 5669 5679 5691 5707 5726 5740 5766 5789 5795 5792 5779 5771 5791 5798 5804 5800 5794 5797 5800 5801 5808 5804 5811 5810 5804 5807 5804 5810 5807 5786 5792 5785 5782 5780 5780 5778 5778 5786 5773 5754
5607 5612 5618 5625 5632 5639 5647 5657 5667 5676 5694 5721 5744 5748 5783 5785 5760 5782 5777 5788 5761 5788 5796 5792 5794 5798 5795 5798 5790 5794 5793 5794 5802 5800 5784 5797 5786 5772 5784 5792 5795 5785 5774 5780 5757 5752 5772
5597 5602 5608 5615 5621 5628 5636 5645 5654 5662 5668 5679 5726 5746 5776 5772 5751 5770 5780 5771 5775 5777 5781 5783 5781 5791 5794 5783 5768 5784 5787 5788 5789 5785 5773 5783 5767 5754 5766 5786 5786 5762 5774 5773 5767 5761 5741
5586 5590 5596 5603 5610 5617 5624 5633 5643 5651 5656 5669 5712 5733 5754 5757 5765 5754 5761 5760 5759 5769 5770 5773 5776 5781 5775 5769 5778 5767 5770 5773 5776 5775 5758 5761 5756 5747 5745 5765 5769 5755 5761 5766 5759 5740 5748
5576 5580 5585 5591 5598 5604 5612 5620 5630 5641 5650 5660 5708 5721 5722 5737 5742 5744 5748 5751 5752 5751 5758 5765 5760 5763 5763 5752 5760 5756 5766 5766 5761 5743 5751 5753 5733 5745 5752 5757 5760 5757 5755 5756 5748 5752 5736
5564 5569 5575 5579 5585 5592 5598 5606 5616 5627 5642 5661 5681 5691 5709 5712 5717 5718 5713 5730 5734 5747 5744 5745 5741 5758 5758 5747 5755 5748 5758 5756 5749 5751 5743 5751 5725 5729 5726 5743 5743 5739 5751 5752 5750 5750 5746
5553 5557 5562 5567 5573 5579 5585 5592 5600 5609 5624 5653 5666 5676 5675 5694 5704 5705 5719 5723 5722 5733 5735 5739 5738 5738 5733 5740 5753 5757 5760 5759 5752 5739 5733 5729 5723 5713 5709 5734 5733 5720 5739 5745 5747 5748 5743
5541 5545 5550 5556 5561 5566 5570 5576 5582 5590 5595 5618 5635 5640 5658 5676 5694 5698 5705 5703 5706 5708 5707 5721 5722 5716 5721 5734 5739 5739 5740 5742 5739 5735 5734 5714 5708 5706 5701 5712 5689 5740 5751 5747 5736 5736 5735
5531 5534 5538 5542 5547 5553 5558 5561 5566 5573 5580 5596 5609 5619 5642 5655 5675 5679 5679 5681 5689 5692 5687 5691 5705 5713 5716 5713 5704 5697 5705 5709 5718 5727 5724 5726 5709 5701 5694 5706 5725 5738 5739 5725 5722 5716 5727
5521 5525 5529 5532 5536 5540 5545 5549 5553 5559 5564 5578 5600 5603 5612 5630 5650 5658 5659 5665 5668 5677 5681 5688 5698 5701 5696 5693 5695 5677 5682 5699 5701 5709 5720 5712 5706 5691 5698 5689 5689 5723 5723 5727 5719 5688 5712
5513 5516 5520 5523 5526 5530 5535 5539 5542 5547 5552 5560 5583 5586 5596 5611 5635 5637 5638 5645 5662 5663 5665 5678 5680 5681 5683 5675 5675 5682 5691 5706 5691 5695 5685 5680 5682 5678 5684 5680 5698 5723 5715 5718 5675 5678 5699
5503 5507 5510 5513 5516 5519 5524 5529 5531 5535 5539 5546 5571 5574 5581 5596 5614 5617 5622 5624 5634 5639 5643 5652 5658 5661 5662 5658 5667 5680 5686 5699 5700 5705 5700 5689 5679 5680 5686 5680 5676 5712 5702 5683 5685 5691 5692
5495 5497 5500 5503 5505 5508 5512 5516 5520 5524 5526 5531 5554 5563 5562 5566 5593 5599 5604 5610 5615 5620 5623 5633 5640 5642 5659 5659 5666 5673 5675 5689 5689 5682 5702 5674 5688 5685 5690 5678 5689 5694 5688 5692 5691 5684 5683